Regional Weather Roundup
Issued by NWS

Home | Current Version | Previous Version | Graphics & Text | Print | Product List | Glossary On
Versions: 1 2 3 4 5 6 7 8 9 10 11 12 13 14 15 16 17 18 19 20 21 22 23 24 25 26 27 28 29 30 31 32 33 34 35 36 37 38 39 40 41 42 43 44 45 46 47 48 49 50
000
ASUS45 KPSR 312100
RWRAZ

ARIZONA HOURLY REGIONAL WEATHER ROUNDUP
NATIONAL WEATHER SERVICE PHOENIX AZ
200 PM MST FRI JUL 31 2015

NOTE: FAIR INDICATES FEW OR NO CLOUDS BELOW 12,000 FEET WITH NO
SIGNIFICANT WEATHER AND/OR OBSTRUCTIONS TO VISIBILITY.

AZZ001>003-036-312200-
NORTHWEST ARIZONA

CITY           SKY/WX    TMP DP  RH WIND       PRES   REMARKS
KINGMAN        SUNNY     98  47  17 SW15G23   30.11F
$$

AZZ004>008-015-016-018-312200-
NORTH CENTRAL ARIZONA

CITY           SKY/WX    TMP DP  RH WIND       PRES   REMARKS
GRAND CANYON   CLOUDY    69  52  54 SE12G21   30.39S
WILLIAMS       CLOUDY    73  48  40 E12       30.46F
PRESCOTT       CLOUDY    78  55  44 SW12      30.25S
FLAGSTAFF      NOT AVBL
PAYSON         TSTM      68  59  73 N12G24    30.27R
PAGE           MOSUNNY   92  48  22 VRB6      30.15F
$$

AZZ009>014-017-312200-
NORTHEAST ARIZONA

CITY           SKY/WX    TMP DP  RH WIND       PRES   REMARKS
WINSLOW        NOT AVBL
SAINT JOHNS    PTSUNNY   82  52  35 W8        30.27F
SHOW LOW       PTSUNNY   77  46  33 W3        30.34S
$$

AZZ023-312200-
GREATER PHOENIX AREA

CITY           SKY/WX    TMP DP  RH WIND       PRES   REMARKS
PHOENIX        PTSUNNY  107  57  19 W7        29.87F HX 107
GLENDALE       PTSUNNY  108  57  19 SW7       29.89F HX 107
LUKE AFB       MOSUNNY  106  59  21 VRB2      29.87F HX 106
DEER VALLEY    MOSUNNY  104  57  21 W12       29.90F HX 103
SCOTTSDALE     MOSUNNY  104  56  20 VRB6      29.91F HX 103
MESA-FALCON    PTSUNNY  106  61  23 W14       29.89F HX 107
MESA-GATEWAY   MOSUNNY  104  61  24 SW5G18    29.92F HX 105
CHANDLER       PTSUNNY  104  59  22 W9        29.89F HX 104
$$

AZZ027-028-312200-
SOUTHWEST MARICOPA COUNTY AND PINAL COUNTY

CITY           SKY/WX    TMP DP  RH WIND       PRES   REMARKS
CASA GRANDE    SUNNY    102  57  22 CALM      29.91F HX 101
GILA BEND      PTSUNNY   96  60  29 S12       29.90F
$$

AZZ503-504-507>509-312200-
SOUTHEAST ARIZONA

CITY           SKY/WX    TMP DP  RH WIND       PRES   REMARKS
TUCSON         CLOUDY    89  62  40 S14       30.03F
DAVIS-MONTHAN  LGT RAIN  83  66  57 S22       30.02S
RYAN FIELD     MOSUNNY   99  63  30 W12       30.00F HX 100
NOGALES        PTSUNNY   85  61  44 VRB7      30.12F THUNDER
SIERRA VISTA   PTSUNNY   89  54  30 NE8       30.19F
SAFFORD        MOSUNNY   95  57  27 S8G20     30.06F
$$

AZZ020-021-025-026-031-312200-
SOUTHWEST ARIZONA

CITY           SKY/WX    TMP DP  RH WIND       PRES   REMARKS
YUMA           SUNNY    108  58  19 VRB3      29.85F HX 108
$$

CAZ031-033-041-043-047-048-061-312200-
SOUTHERN CALIFORNIA

CITY           SKY/WX    TMP DP  RH WIND       PRES   REMARKS
DOWNTOWN L.A.  NOT AVBL
L.A. AIRPORT   PTSUNNY   76  66  71 W13       30.00F
SAN DIEGO      PTSUNNY   79  64  60 W14       30.01F
BURBANK        SUNNY     90  65  43 S9        29.98F
ONTARIO        PTSUNNY   95  60  31 W10       29.98F
RIVERSIDE      PTSUNNY   94  66  39 VRB5      29.98F
PALM SPRINGS   PTSUNNY  105  62  24 CALM      29.89F HX 107
EL CENTRO NAS  PTSUNNY  108  42  10 VRB3      29.85F HX 102
IMPERIAL       SUNNY    107  52  16 VRB5      29.83F HX 105
BLYTHE         SUNNY    106  59  21 VRB5      29.86F HX 106
$$

NVZ020-UTZ003-312200-
SOUTHERN NEVADA-UTAH

CITY           SKY/WX    TMP DP  RH WIND       PRES   REMARKS
LAS VEGAS      NOT AVBL
SALT LAKE CITY PTSUNNY   91  25   9 NW7       30.18F
$$

NMZ009-TXZ055-312200-
NEW MEXICO-WEST TEXAS

CITY           SKY/WX    TMP DP  RH WIND       PRES   REMARKS
ALBUQUERQUE    MOSUNNY   85  55  35 SE9       30.27F
EL PASO        MOSUNNY   92  53  26 CALM      30.15F
$$


........................KEY........................
SKY/WX - SKY CONDITION/WEATHER
TMP    - TEMPERATURE IN FAHRENHEIT
DP     - DEW POINT IN FAHRENHEIT
RH     - RELATIVE HUMIDITY IN PERCENT
WIND   - DIRECTION AND SPEED IN MILES PER HOUR (MPH)
VRB    - VARIABLE WIND DIRECTION
PRES   - MEAN SEA LEVEL PRESSURE IN INCHES OF MERCURY
         F - FALLING PRESSURE   R - RISING PRESSURE
         S - STEADY PRESSURE
VSB    - VISIBILITY IN MILES
HX     - HEAT INDEX IN FAHRENHEIT
WCI    - WIND CHILL INDEX IN FAHRENHEIT
TC     - TEMPERATURE IN CELSIUS WHICH IS ALSO KNOWN AS
         TEMPERATURE IN CENTIGRADE
AFB    - AIR FORCE BASE
         LUKE AFB IS LUKE AIR FORCE BASE
         DAVIS-MONTHAN IS DAVIS-MONTHAN AIR FORCE BASE
NAS    - NAVAL AIR STATION
         EL CENTRO NAS IS EL CENTRO NAVAL AIR STATION
N/A    - NOT AVAILABLE




USA.gov is the U.S. government's official web portal to all federal, state and local government web resources and services.